Year,Month,Day,Hour,Minute,Value (Times are PST for temperature in C)
2008,05,24,00,01,14.60
2008,05,24,00,02,14.60
2008,05,24,00,03,14.60
2008,05,24,00,04,14.60
2008,05,24,00,05,14.60
2008,05,24,00,07,14.60
2008,05,24,00,08,14.50
2008,05,24,00,09,14.50
2008,05,24,00,11,14.50
2008,05,24,00,12,14.50
2008,05,24,00,13,14.50
2008,05,24,00,14,14.40
2008,05,24,00,15,14.40
2008,05,24,00,16,14.40
2008,05,24,00,17,14.40
2008,05,24,00,19,14.40
2008,05,24,00,20,14.40
2008,05,24,00,22,14.40
2008,05,24,00,23,14.30
2008,05,24,00,24,14.30
2008,05,24,00,25,14.30
2008,05,24,00,26,14.30
2008,05,24,00,27,14.30
2008,05,24,00,28,14.30
2008,05,24,00,29,14.30
2008,05,24,00,30,14.30
2008,05,24,00,31,14.30
2008,05,24,00,32,14.20
2008,05,24,00,34,14.20
2008,05,24,00,35,14.20
2008,05,24,00,36,14.20
2008,05,24,00,38,14.20
2008,05,24,00,40,14.10
2008,05,24,00,41,14.10
2008,05,24,00,42,14.10
2008,05,24,00,43,14.10
2008,05,24,00,44,14.10
2008,05,24,00,45,14.00
2008,05,24,00,46,14.00
2008,05,24,00,48,13.90
2008,05,24,00,49,13.90
2008,05,24,00,50,13.90
2008,05,24,00,51,13.90
2008,05,24,00,52,13.90
2008,05,24,00,53,13.80
2008,05,24,00,54,13.80
2008,05,24,00,56,13.80
2008,05,24,00,57,13.80
2008,05,24,00,58,13.80
2008,05,24,00,59,13.70
2008,05,24,01,00,13.70
2008,05,24,01,02,13.70
2008,05,24,01,03,13.60
2008,05,24,01,04,13.60
2008,05,24,01,05,13.60
2008,05,24,01,06,13.50
2008,05,24,01,07,13.50
2008,05,24,01,08,13.40
2008,05,24,01,09,13.40
2008,05,24,01,10,13.40
2008,05,24,01,12,13.30
2008,05,24,01,13,13.30
2008,05,24,01,14,13.30
2008,05,24,01,15,13.30
2008,05,24,01,16,13.30
2008,05,24,01,17,13.20
2008,05,24,01,18,13.20
2008,05,24,01,19,13.20
2008,05,24,01,20,13.10
2008,05,24,01,21,13.10
2008,05,24,01,22,13.10
2008,05,24,01,23,13.10
2008,05,24,01,24,13.00
2008,05,24,01,25,12.90
2008,05,24,01,26,12.90
2008,05,24,01,27,12.90
2008,05,24,01,28,12.90
2008,05,24,01,29,12.80
2008,05,24,01,30,12.80
2008,05,24,01,31,12.80
2008,05,24,01,32,12.80
2008,05,24,01,33,12.70
2008,05,24,01,34,12.70
2008,05,24,01,35,12.70
2008,05,24,01,37,12.60
2008,05,24,01,38,12.60
2008,05,24,01,39,12.60
2008,05,24,01,40,12.60
2008,05,24,01,41,12.60
2008,05,24,01,42,12.50
2008,05,24,01,43,12.50
2008,05,24,01,44,12.40
2008,05,24,01,45,12.40
2008,05,24,01,46,12.40
2008,05,24,01,47,12.40
2008,05,24,01,48,12.30
2008,05,24,01,49,12.30
2008,05,24,01,50,12.30
2008,05,24,01,51,12.30
2008,05,24,01,52,12.30
2008,05,24,01,53,12.20
2008,05,24,01,54,12.20
2008,05,24,01,55,12.20
2008,05,24,01,56,12.20
2008,05,24,01,57,12.20
2008,05,24,01,58,12.10
2008,05,24,01,59,12.10
2008,05,24,02,01,12.10
2008,05,24,02,02,12.00
2008,05,24,02,03,12.00
2008,05,24,02,04,12.00
2008,05,24,02,05,11.90
2008,05,24,02,06,11.90
2008,05,24,02,07,11.90
2008,05,24,02,08,11.80
2008,05,24,02,09,11.80
2008,05,24,02,10,11.80
2008,05,24,02,11,11.80
2008,05,24,02,12,11.80
2008,05,24,02,13,11.70
2008,05,24,02,14,11.70
2008,05,24,02,15,11.70
2008,05,24,02,16,11.70
2008,05,24,02,17,11.70
2008,05,24,02,18,11.60
2008,05,24,02,19,11.60
2008,05,24,02,20,11.60
2008,05,24,02,21,11.60
2008,05,24,02,22,11.60
2008,05,24,02,23,11.50
2008,05,24,02,24,11.50
2008,05,24,02,25,11.50
2008,05,24,02,26,11.40
2008,05,24,02,27,11.40
2008,05,24,02,28,11.40
2008,05,24,02,29,11.40
2008,05,24,02,30,11.40
2008,05,24,02,31,11.40
2008,05,24,02,32,11.30
2008,05,24,02,33,11.30
2008,05,24,02,34,11.30
2008,05,24,02,35,11.30
2008,05,24,02,36,11.30
2008,05,24,02,37,11.30
2008,05,24,02,38,11.20
2008,05,24,02,39,11.20
2008,05,24,02,40,11.20
2008,05,24,02,41,11.20
2008,05,24,02,42,11.20
2008,05,24,02,43,11.20
2008,05,24,02,44,11.20
2008,05,24,02,45,11.10
2008,05,24,02,46,11.10
2008,05,24,02,47,11.10
2008,05,24,02,49,11.10
2008,05,24,02,50,11.10
2008,05,24,02,51,11.10
2008,05,24,02,52,11.10
2008,05,24,02,53,11.10
2008,05,24,02,54,11.00
2008,05,24,02,55,11.00
2008,05,24,02,57,11.00
2008,05,24,02,58,11.00
2008,05,24,02,59,11.00
2008,05,24,03,00,11.00
2008,05,24,03,01,11.00
2008,05,24,03,02,11.00
2008,05,24,03,04,11.00
2008,05,24,03,05,11.00
2008,05,24,03,06,11.00
2008,05,24,03,07,11.00
2008,05,24,03,08,11.00
2008,05,24,03,09,11.00
2008,05,24,03,10,11.00
2008,05,24,03,11,11.00
2008,05,24,03,12,11.00
2008,05,24,03,13,11.00
2008,05,24,03,14,11.00
2008,05,24,03,15,11.00
2008,05,24,03,16,11.00
2008,05,24,03,17,11.10
2008,05,24,03,18,11.10
2008,05,24,03,19,11.00
2008,05,24,03,20,11.10
2008,05,24,03,21,11.10
2008,05,24,03,22,11.10
2008,05,24,03,23,11.10
2008,05,24,03,24,11.10
2008,05,24,03,25,11.10
2008,05,24,03,26,11.10
2008,05,24,03,27,11.10
2008,05,24,03,28,11.10
2008,05,24,03,29,11.10
2008,05,24,03,30,11.10
2008,05,24,03,31,11.10
2008,05,24,03,32,11.10
2008,05,24,03,33,11.10
2008,05,24,03,34,11.10
2008,05,24,03,35,11.10
2008,05,24,03,36,11.10
2008,05,24,03,37,11.10
2008,05,24,03,38,11.10
2008,05,24,03,39,11.10
2008,05,24,03,40,11.10
2008,05,24,03,41,11.10
2008,05,24,03,43,11.10
2008,05,24,03,44,11.10
2008,05,24,03,45,11.20
2008,05,24,03,46,11.20
2008,05,24,03,47,11.20
2008,05,24,03,48,11.20
2008,05,24,03,49,11.20
2008,05,24,03,50,11.20
2008,05,24,03,51,11.20
2008,05,24,03,52,11.20
2008,05,24,03,53,11.20
2008,05,24,03,54,11.20
2008,05,24,03,55,11.20
2008,05,24,03,56,11.20
2008,05,24,03,57,11.20
2008,05,24,03,58,11.20
2008,05,24,03,59,11.20
2008,05,24,04,00,11.20
2008,05,24,04,01,11.20
2008,05,24,04,02,11.20
2008,05,24,04,03,11.20
2008,05,24,04,04,11.20
2008,05,24,04,05,11.20
2008,05,24,04,06,11.20
2008,05,24,04,07,11.20
2008,05,24,04,08,11.20
2008,05,24,04,09,11.20
2008,05,24,04,10,11.30
2008,05,24,04,11,11.20
2008,05,24,04,12,11.30
2008,05,24,04,13,11.20
2008,05,24,04,14,11.20
2008,05,24,04,15,11.30
2008,05,24,04,16,11.30
2008,05,24,04,17,11.30
2008,05,24,04,18,11.20
2008,05,24,04,19,11.30
2008,05,24,04,20,11.30
2008,05,24,04,21,11.30
2008,05,24,04,22,11.20
2008,05,24,04,23,11.20
2008,05,24,04,24,11.20
2008,05,24,04,25,11.20
2008,05,24,04,26,11.20
2008,05,24,04,27,11.20
2008,05,24,04,28,11.20
2008,05,24,04,29,11.20
2008,05,24,04,30,11.20
2008,05,24,04,31,11.20
2008,05,24,04,32,11.20
2008,05,24,04,33,11.20
2008,05,24,04,34,11.20
2008,05,24,04,35,11.20
2008,05,24,04,36,11.20
2008,05,24,04,37,11.20
2008,05,24,04,38,11.20
2008,05,24,04,39,11.20
2008,05,24,04,40,11.20
2008,05,24,04,41,11.20
2008,05,24,04,42,11.20
2008,05,24,04,43,11.20
2008,05,24,04,44,11.20
2008,05,24,04,45,11.20
2008,05,24,04,46,11.20
2008,05,24,04,47,11.20
2008,05,24,04,48,11.20
2008,05,24,04,49,11.20
2008,05,24,04,50,11.20
2008,05,24,04,51,11.20
2008,05,24,04,52,11.20
2008,05,24,04,53,11.20
2008,05,24,04,54,11.20
2008,05,24,04,55,11.20
2008,05,24,04,56,11.20
2008,05,24,04,58,11.20
2008,05,24,04,59,11.20
2008,05,24,05,00,11.20
2008,05,24,05,01,11.30
2008,05,24,05,02,11.30
2008,05,24,05,03,11.30
2008,05,24,05,04,11.30
2008,05,24,05,05,11.30
2008,05,24,05,06,11.30
2008,05,24,05,07,11.30
2008,05,24,05,08,11.20
2008,05,24,05,09,11.20
2008,05,24,05,10,11.30
2008,05,24,05,11,11.20
2008,05,24,05,12,11.20
2008,05,24,05,13,11.20
2008,05,24,05,14,11.20
2008,05,24,05,15,11.20
2008,05,24,05,16,11.20
2008,05,24,05,17,11.20
2008,05,24,05,18,11.20
2008,05,24,05,19,11.20
2008,05,24,05,20,11.20
2008,05,24,05,21,11.20
2008,05,24,05,22,11.20
2008,05,24,05,23,11.20
2008,05,24,05,24,11.20
2008,05,24,05,25,11.20
2008,05,24,05,26,11.20
2008,05,24,05,27,11.10
2008,05,24,05,28,11.10
2008,05,24,05,29,11.10
2008,05,24,05,30,11.10
2008,05,24,05,31,11.10
2008,05,24,05,32,11.10
2008,05,24,05,33,11.10
2008,05,24,05,34,11.10
2008,05,24,05,35,11.10
2008,05,24,05,36,11.10
2008,05,24,05,37,11.10
2008,05,24,05,38,11.10
2008,05,24,05,39,11.10
2008,05,24,05,40,11.10
2008,05,24,05,41,11.10
2008,05,24,05,42,11.10
2008,05,24,05,43,11.10
2008,05,24,05,44,11.10
2008,05,24,05,45,11.10
2008,05,24,05,46,11.10
2008,05,24,05,47,11.10
2008,05,24,05,48,11.10
2008,05,24,05,49,11.10
2008,05,24,05,50,11.10
2008,05,24,05,51,11.10
2008,05,24,05,52,11.10
2008,05,24,05,53,11.10
2008,05,24,05,54,11.10
2008,05,24,05,55,11.10
2008,05,24,05,56,11.10
2008,05,24,05,57,11.10
2008,05,24,05,58,11.10
2008,05,24,05,59,11.10
2008,05,24,06,00,11.10
2008,05,24,06,01,11.20
2008,05,24,06,02,11.10
2008,05,24,06,03,11.20
2008,05,24,06,04,11.20
2008,05,24,06,05,11.20
2008,05,24,06,06,11.20
2008,05,24,06,07,11.20
2008,05,24,06,08,11.20
2008,05,24,06,09,11.20
2008,05,24,06,10,11.20
2008,05,24,06,11,11.20
2008,05,24,06,12,11.20
2008,05,24,06,13,11.20
2008,05,24,06,14,11.20
2008,05,24,06,15,11.20
2008,05,24,06,16,11.20
2008,05,24,06,17,11.20
2008,05,24,06,18,11.20
2008,05,24,06,19,11.20
2008,05,24,06,20,11.20
2008,05,24,06,21,11.20
2008,05,24,06,22,11.20
2008,05,24,06,23,11.20
2008,05,24,06,24,11.20
2008,05,24,06,25,11.30
2008,05,24,06,26,11.30
2008,05,24,06,27,11.30
2008,05,24,06,28,11.30
2008,05,24,06,29,11.30
2008,05,24,06,30,11.30
2008,05,24,06,31,11.30
2008,05,24,06,32,11.30
2008,05,24,06,33,11.30
2008,05,24,06,34,11.30
2008,05,24,06,35,11.30
2008,05,24,06,36,11.30
2008,05,24,06,37,11.30
2008,05,24,06,38,11.30
2008,05,24,06,39,11.30
2008,05,24,06,40,11.30
2008,05,24,06,41,11.30
2008,05,24,06,42,11.30
2008,05,24,06,43,11.30
2008,05,24,06,44,11.30
2008,05,24,06,45,11.30
2008,05,24,06,46,11.30
2008,05,24,06,47,11.30
2008,05,24,06,48,11.30
2008,05,24,06,49,11.40
2008,05,24,06,50,11.40
2008,05,24,06,51,11.40
2008,05,24,06,52,11.40
2008,05,24,06,53,11.40
2008,05,24,06,54,11.40
2008,05,24,06,55,11.40
2008,05,24,06,56,11.40
2008,05,24,06,57,11.40
2008,05,24,06,59,11.50
2008,05,24,07,00,11.50
2008,05,24,07,01,11.60
2008,05,24,07,02,11.60
2008,05,24,07,03,11.60
2008,05,24,07,04,11.60
2008,05,24,07,05,11.60
2008,05,24,07,06,11.70
2008,05,24,07,07,11.70
2008,05,24,07,08,11.80
2008,05,24,07,09,11.80
2008,05,24,07,10,11.80
2008,05,24,07,11,11.80
2008,05,24,07,12,11.90
2008,05,24,07,13,11.90
2008,05,24,07,14,11.90
2008,05,24,07,15,12.00
2008,05,24,07,16,12.10
2008,05,24,07,17,12.10
2008,05,24,07,18,12.10
2008,05,24,07,19,12.20
2008,05,24,07,20,12.20
2008,05,24,07,21,12.20
2008,05,24,07,22,12.20
2008,05,24,07,23,12.30
2008,05,24,07,24,12.30
2008,05,24,07,25,12.40
2008,05,24,07,26,12.40
2008,05,24,07,27,12.50
2008,05,24,07,28,12.60
2008,05,24,07,29,12.60
2008,05,24,07,30,12.60
2008,05,24,07,31,12.70
2008,05,24,07,32,12.70
2008,05,24,07,33,12.80
2008,05,24,07,34,12.80
2008,05,24,07,35,12.90
2008,05,24,07,36,12.90
2008,05,24,07,37,13.00
2008,05,24,07,38,13.10
2008,05,24,07,39,13.10
2008,05,24,07,40,13.20
2008,05,24,07,41,13.30
2008,05,24,07,42,13.40
2008,05,24,07,43,13.40
2008,05,24,07,44,13.50
2008,05,24,07,45,13.60
2008,05,24,07,46,13.60
2008,05,24,07,47,13.70
2008,05,24,07,48,13.70
2008,05,24,07,49,13.80
2008,05,24,07,50,13.90
2008,05,24,07,51,13.90
2008,05,24,07,52,14.00
2008,05,24,07,53,14.10
2008,05,24,07,54,14.20
2008,05,24,07,55,14.20
2008,05,24,07,56,14.20
2008,05,24,07,57,14.30
2008,05,24,07,58,14.30
2008,05,24,07,59,14.30
2008,05,24,08,00,14.40
2008,05,24,08,01,14.40
2008,05,24,08,02,14.50
2008,05,24,08,03,14.50
2008,05,24,08,04,14.60
2008,05,24,08,05,14.60
2008,05,24,08,06,14.60
2008,05,24,08,07,14.70
2008,05,24,08,08,14.70
2008,05,24,08,09,14.70
2008,05,24,08,10,14.70
2008,05,24,08,11,14.70
2008,05,24,08,12,14.80
2008,05,24,08,13,14.80
2008,05,24,08,14,14.80
2008,05,24,08,15,14.80
2008,05,24,08,16,14.90
2008,05,24,08,17,14.90
2008,05,24,08,18,14.90
2008,05,24,08,19,15.00
2008,05,24,08,20,15.00
2008,05,24,08,21,14.90
2008,05,24,08,22,14.90
2008,05,24,08,23,14.90
2008,05,24,08,24,14.80
2008,05,24,08,25,14.80
2008,05,24,08,26,14.80
2008,05,24,08,27,14.80
2008,05,24,08,28,14.80
2008,05,24,08,29,14.80
2008,05,24,08,30,14.80
2008,05,24,08,31,14.80
2008,05,24,08,32,14.80
2008,05,24,08,33,14.80
2008,05,24,08,34,14.80
2008,05,24,08,35,14.80
2008,05,24,08,36,14.80
2008,05,24,08,37,14.80
2008,05,24,08,38,14.80
2008,05,24,08,39,14.80
2008,05,24,08,40,14.80
2008,05,24,08,41,14.80
2008,05,24,08,42,14.80
2008,05,24,08,43,14.80
2008,05,24,08,44,14.80
2008,05,24,08,45,14.80
2008,05,24,08,46,14.80
2008,05,24,08,47,14.80
2008,05,24,08,48,14.80
2008,05,24,08,49,14.80
2008,05,24,08,50,14.90
2008,05,24,08,51,14.90
2008,05,24,08,52,14.90
2008,05,24,08,53,14.90
2008,05,24,08,54,15.00
2008,05,24,08,55,15.00
2008,05,24,08,56,15.00
2008,05,24,08,57,15.00
2008,05,24,08,58,15.00
2008,05,24,08,59,15.00
2008,05,24,09,00,15.00
2008,05,24,09,01,15.00
2008,05,24,09,02,15.00
2008,05,24,09,03,15.00
2008,05,24,09,04,15.00
2008,05,24,09,05,15.00
2008,05,24,09,06,15.00
2008,05,24,09,07,15.00
2008,05,24,09,08,15.00
2008,05,24,09,09,15.00
2008,05,24,09,10,15.10
2008,05,24,09,11,15.10
2008,05,24,09,12,15.10
2008,05,24,09,13,15.10
2008,05,24,09,14,15.20
2008,05,24,09,15,15.20
2008,05,24,09,16,15.20
2008,05,24,09,17,15.20
2008,05,24,09,18,15.20
2008,05,24,09,19,15.20
2008,05,24,09,20,15.30
2008,05,24,09,21,15.30
2008,05,24,09,22,15.30
2008,05,24,09,23,15.30
2008,05,24,09,24,15.30
2008,05,24,09,25,15.30
2008,05,24,09,26,15.30
2008,05,24,09,27,15.30
2008,05,24,09,28,15.40
2008,05,24,09,29,15.40
2008,05,24,09,30,15.40
2008,05,24,09,31,15.40
2008,05,24,09,32,15.50
2008,05,24,09,33,15.50
2008,05,24,09,34,15.50
2008,05,24,09,35,15.60
2008,05,24,09,36,15.60
2008,05,24,09,37,15.60
2008,05,24,09,38,15.60
2008,05,24,09,39,15.60
2008,05,24,09,40,15.60
2008,05,24,09,41,15.70
2008,05,24,09,42,15.70
2008,05,24,09,43,15.70
2008,05,24,09,44,15.70
2008,05,24,09,45,15.70
2008,05,24,09,46,15.70
2008,05,24,09,47,15.80
2008,05,24,09,48,15.80
2008,05,24,09,49,15.80
2008,05,24,09,50,15.80
2008,05,24,09,51,15.80
2008,05,24,09,52,15.90
2008,05,24,09,53,15.90
2008,05,24,09,54,15.90
2008,05,24,09,55,15.90
2008,05,24,09,56,16.00
2008,05,24,09,57,16.10
2008,05,24,09,58,16.10
2008,05,24,09,59,16.10
2008,05,24,10,00,16.10
2008,05,24,10,01,16.10
2008,05,24,10,02,16.20
2008,05,24,10,03,16.20
2008,05,24,10,04,16.20
2008,05,24,10,05,16.20
2008,05,24,10,06,16.30
2008,05,24,10,07,16.30
2008,05,24,10,08,16.30
2008,05,24,10,09,16.40
2008,05,24,10,10,16.40
2008,05,24,10,11,16.40
2008,05,24,10,12,16.50
2008,05,24,10,13,16.50
2008,05,24,10,14,16.60
2008,05,24,10,15,16.60
2008,05,24,10,16,16.60
2008,05,24,10,17,16.60
2008,05,24,10,18,16.60
2008,05,24,10,19,16.70
2008,05,24,10,20,16.70
2008,05,24,10,21,16.70
2008,05,24,10,22,16.70
2008,05,24,10,23,16.80
2008,05,24,10,24,16.80
2008,05,24,10,25,16.80
2008,05,24,10,26,16.80
2008,05,24,10,27,16.80
2008,05,24,10,28,16.80
2008,05,24,10,29,16.80
2008,05,24,10,30,16.80
2008,05,24,10,31,16.80
2008,05,24,10,32,16.80
2008,05,24,10,33,16.80
2008,05,24,10,34,16.80
2008,05,24,10,35,16.80
2008,05,24,10,36,16.80
2008,05,24,10,37,16.80
2008,05,24,10,38,16.80
2008,05,24,10,39,16.80
2008,05,24,10,40,16.80
2008,05,24,10,41,16.80
2008,05,24,10,42,16.80
2008,05,24,10,43,16.80
2008,05,24,10,44,16.80
2008,05,24,10,45,16.80
2008,05,24,10,46,16.80
2008,05,24,10,47,16.80
2008,05,24,10,48,16.80
2008,05,24,10,49,16.80
2008,05,24,10,50,16.80
2008,05,24,10,51,16.90
2008,05,24,10,52,16.90
2008,05,24,10,53,16.90
2008,05,24,10,54,16.90
2008,05,24,10,55,16.90
2008,05,24,10,56,16.90
2008,05,24,10,57,16.90
2008,05,24,10,58,16.90
2008,05,24,10,59,16.90
2008,05,24,11,01,16.90
2008,05,24,11,02,16.90
2008,05,24,11,03,16.90
2008,05,24,11,04,16.90
2008,05,24,11,05,16.80
2008,05,24,11,06,16.80
2008,05,24,11,07,16.80
2008,05,24,11,08,16.80
2008,05,24,11,09,16.80
2008,05,24,11,10,16.80
2008,05,24,11,11,16.80
2008,05,24,11,12,16.80
2008,05,24,11,13,16.90
2008,05,24,11,14,16.90
2008,05,24,11,15,16.90
2008,05,24,11,16,16.90
2008,05,24,11,17,16.90
2008,05,24,11,18,16.90
2008,05,24,11,19,16.90
2008,05,24,11,20,16.90
2008,05,24,11,21,16.90
2008,05,24,11,22,16.90
2008,05,24,11,23,17.00
2008,05,24,11,24,17.00
2008,05,24,11,25,17.00
2008,05,24,11,26,17.00
2008,05,24,11,27,17.10
2008,05,24,11,28,17.10
2008,05,24,11,29,17.10
2008,05,24,11,30,17.10
2008,05,24,11,31,17.10
2008,05,24,11,32,17.10
2008,05,24,11,33,17.10
2008,05,24,11,34,17.10
2008,05,24,11,35,17.10
2008,05,24,11,36,17.10
2008,05,24,11,37,17.10
2008,05,24,11,38,17.10
2008,05,24,11,39,17.10
2008,05,24,11,40,17.20
2008,05,24,11,41,17.20
2008,05,24,11,42,17.20
2008,05,24,11,43,17.20
2008,05,24,11,44,17.20
2008,05,24,11,45,17.20
2008,05,24,11,46,17.20
2008,05,24,11,47,17.20
2008,05,24,11,48,17.30
2008,05,24,11,49,17.30
2008,05,24,11,50,17.30
2008,05,24,11,51,17.30
2008,05,24,11,52,17.30
2008,05,24,11,53,17.40
2008,05,24,11,54,17.40
2008,05,24,11,55,17.50
2008,05,24,11,56,17.50
2008,05,24,11,57,17.60
2008,05,24,11,58,17.60
2008,05,24,11,59,17.60
2008,05,24,12,00,17.60
2008,05,24,12,01,17.60
2008,05,24,12,02,17.60
2008,05,24,12,03,17.60
2008,05,24,12,04,17.70
2008,05,24,12,05,17.70
2008,05,24,12,06,17.70
2008,05,24,12,07,17.80
2008,05,24,12,08,17.80
2008,05,24,12,09,17.80
2008,05,24,12,10,17.80
2008,05,24,12,11,17.90
2008,05,24,12,12,17.90
2008,05,24,12,13,17.90
2008,05,24,12,14,18.00
2008,05,24,12,15,18.10
2008,05,24,12,16,18.10
2008,05,24,12,17,18.10
2008,05,24,12,18,18.20
2008,05,24,12,19,18.20
2008,05,24,12,20,18.30
2008,05,24,12,21,18.30
2008,05,24,12,22,18.40
2008,05,24,12,23,18.40
2008,05,24,12,24,18.40
2008,05,24,12,25,18.50
2008,05,24,12,26,18.60
2008,05,24,12,27,18.60
2008,05,24,12,28,18.60
2008,05,24,12,29,18.60
2008,05,24,12,30,18.60
2008,05,24,12,31,18.60
2008,05,24,12,32,18.70
2008,05,24,12,33,18.70
2008,05,24,12,34,18.70
2008,05,24,12,35,18.80
2008,05,24,12,36,18.80
2008,05,24,12,37,18.90
2008,05,24,12,38,18.90
2008,05,24,12,39,18.90
2008,05,24,12,40,19.00
2008,05,24,12,41,19.10
2008,05,24,12,42,19.10
2008,05,24,12,43,19.20
2008,05,24,12,44,19.20
2008,05,24,12,45,19.30
2008,05,24,12,46,19.30
2008,05,24,12,47,19.30
2008,05,24,12,48,19.30
2008,05,24,12,49,19.30
2008,05,24,12,50,19.30
2008,05,24,12,51,19.40
2008,05,24,12,52,19.40
2008,05,24,12,53,19.40
2008,05,24,12,54,19.40
2008,05,24,12,55,19.40
2008,05,24,12,56,19.50
2008,05,24,12,57,19.50
2008,05,24,12,58,19.50
2008,05,24,12,59,19.50
2008,05,24,13,00,19.50
2008,05,24,13,01,19.50
2008,05,24,13,02,19.50
2008,05,24,13,03,19.50
2008,05,24,13,04,19.60
2008,05,24,13,05,19.60
2008,05,24,13,06,19.60
2008,05,24,13,07,19.60
2008,05,24,13,08,19.60
2008,05,24,13,09,19.70
2008,05,24,13,10,19.70
2008,05,24,13,11,19.70
2008,05,24,13,12,19.80
2008,05,24,13,13,19.80
2008,05,24,13,14,19.80
2008,05,24,13,15,19.80
2008,05,24,13,16,19.90
2008,05,24,13,17,19.90
2008,05,24,13,18,19.90
2008,05,24,13,19,19.90
2008,05,24,13,20,19.90
2008,05,24,13,21,19.90
2008,05,24,13,22,20.00
2008,05,24,13,23,20.10
2008,05,24,13,24,20.10
2008,05,24,13,25,20.20
2008,05,24,13,26,20.20
2008,05,24,13,27,20.30
2008,05,24,13,28,20.40
2008,05,24,13,29,20.60
2008,05,24,13,30,20.60
2008,05,24,13,31,20.70
2008,05,24,13,32,20.80
2008,05,24,13,33,20.90
2008,05,24,13,34,21.00
2008,05,24,13,35,21.10
2008,05,24,13,36,21.20
2008,05,24,13,37,21.30
2008,05,24,13,38,21.30
2008,05,24,13,39,21.40
2008,05,24,13,40,21.40
2008,05,24,13,41,21.60
2008,05,24,13,42,21.70
2008,05,24,13,43,21.80
2008,05,24,13,44,22.00
2008,05,24,13,45,22.20
2008,05,24,13,46,22.40
2008,05,24,13,47,22.50
2008,05,24,13,48,22.70
2008,05,24,13,49,22.80
2008,05,24,13,50,22.90
2008,05,24,13,51,23.10
2008,05,24,13,52,23.20
2008,05,24,13,53,23.30
2008,05,24,13,54,23.30
2008,05,24,13,55,23.30
2008,05,24,13,56,23.40
2008,05,24,13,57,23.40
2008,05,24,13,58,23.40
2008,05,24,13,59,23.50
2008,05,24,14,00,23.60
2008,05,24,14,01,23.60
2008,05,24,14,02,23.70
2008,05,24,14,03,23.80
2008,05,24,14,04,23.80
2008,05,24,14,05,23.90
2008,05,24,14,06,24.00
2008,05,24,14,07,24.00
2008,05,24,14,08,23.90
2008,05,24,14,09,23.90
2008,05,24,14,10,23.80
2008,05,24,14,11,23.80
2008,05,24,14,12,23.80
2008,05,24,14,13,23.80
2008,05,24,14,14,23.80
2008,05,24,14,15,23.90
2008,05,24,14,16,23.90
2008,05,24,14,17,24.10
2008,05,24,14,18,24.10
2008,05,24,14,19,24.30
2008,05,24,14,20,24.30
2008,05,24,14,21,24.40
2008,05,24,14,22,24.40
2008,05,24,14,23,24.40
2008,05,24,14,24,24.50
2008,05,24,14,25,24.60
2008,05,24,14,26,24.60
2008,05,24,14,27,24.70
2008,05,24,14,28,24.70
2008,05,24,14,29,24.70
2008,05,24,14,30,24.70
2008,05,24,14,31,24.70
2008,05,24,14,32,24.60
2008,05,24,14,33,24.70
2008,05,24,14,34,24.70
2008,05,24,14,35,24.70
2008,05,24,14,36,24.80
2008,05,24,14,37,24.80
2008,05,24,14,38,24.80
2008,05,24,14,39,24.80
2008,05,24,14,40,24.80
2008,05,24,14,41,24.90
2008,05,24,14,42,24.90
2008,05,24,14,43,24.90
2008,05,24,14,44,25.10
2008,05,24,14,45,25.10
2008,05,24,14,46,25.20
2008,05,24,14,47,25.20
2008,05,24,14,48,25.20
2008,05,24,14,49,25.30
2008,05,24,14,50,25.20
2008,05,24,14,51,25.20
2008,05,24,14,52,25.10
2008,05,24,14,53,25.10
2008,05,24,14,54,25.10
2008,05,24,14,55,25.00
2008,05,24,14,56,25.00
2008,05,24,14,57,25.00
2008,05,24,14,58,25.10
2008,05,24,14,59,25.20
2008,05,24,15,00,25.30
2008,05,24,15,01,25.30
2008,05,24,15,02,25.30
2008,05,24,15,03,25.30
2008,05,24,15,04,25.30
2008,05,24,15,05,25.30
2008,05,24,15,06,25.20
2008,05,24,15,07,25.30
2008,05,24,15,08,25.30
2008,05,24,15,09,25.40
2008,05,24,15,10,25.50
2008,05,24,15,11,25.60
2008,05,24,15,12,25.70
2008,05,24,15,13,25.80
2008,05,24,15,14,25.90
2008,05,24,15,15,25.90
2008,05,24,15,16,25.90
2008,05,24,15,17,26.10
2008,05,24,15,18,26.20
2008,05,24,15,19,26.30
2008,05,24,15,20,26.30
2008,05,24,15,21,26.40
2008,05,24,15,22,26.50
2008,05,24,15,23,26.60
2008,05,24,15,24,26.70
2008,05,24,15,25,26.70
2008,05,24,15,26,26.70
2008,05,24,15,27,26.60
2008,05,24,15,28,26.40
2008,05,24,15,29,26.40
2008,05,24,15,30,26.40
2008,05,24,15,31,26.40
2008,05,24,15,32,26.50
2008,05,24,15,33,26.60
2008,05,24,15,34,26.60
2008,05,24,15,35,26.70
2008,05,24,15,36,26.70
2008,05,24,15,37,26.80
2008,05,24,15,38,26.80
2008,05,24,15,39,26.80
2008,05,24,15,40,26.80
2008,05,24,15,41,26.80
2008,05,24,15,42,26.80
2008,05,24,15,43,26.80
2008,05,24,15,44,26.80
2008,05,24,15,45,26.80
2008,05,24,15,46,26.80
2008,05,24,15,47,26.80
2008,05,24,15,48,26.70
2008,05,24,15,49,26.70
2008,05,24,15,50,26.60
2008,05,24,15,51,26.60
2008,05,24,15,52,26.70
2008,05,24,15,53,26.70
2008,05,24,15,54,26.70
2008,05,24,15,55,26.80
2008,05,24,15,56,26.90
2008,05,24,15,57,27.00
2008,05,24,15,58,27.10
2008,05,24,15,59,27.10
2008,05,24,16,00,27.10
2008,05,24,16,01,27.10
2008,05,24,16,02,27.10
2008,05,24,16,03,26.90
2008,05,24,16,04,26.80
2008,05,24,16,05,26.70
2008,05,24,16,06,26.60
2008,05,24,16,07,26.50
2008,05,24,16,08,26.40
2008,05,24,16,09,26.40
2008,05,24,16,10,26.30
2008,05,24,16,11,26.20
2008,05,24,16,12,26.20
2008,05,24,16,13,26.20
2008,05,24,16,14,26.20
2008,05,24,16,15,26.10
2008,05,24,16,16,26.20
2008,05,24,16,17,26.20
2008,05,24,16,18,26.20
2008,05,24,16,19,26.20
2008,05,24,16,20,26.30
2008,05,24,16,21,26.30
2008,05,24,16,22,26.30
2008,05,24,16,23,26.40
2008,05,24,16,24,26.40
2008,05,24,16,25,26.40
2008,05,24,16,26,26.50
2008,05,24,16,27,26.60
2008,05,24,16,28,26.70
2008,05,24,16,29,26.80
2008,05,24,16,30,26.80
2008,05,24,16,31,26.90
2008,05,24,16,32,27.00
2008,05,24,16,33,27.10
2008,05,24,16,34,27.10
2008,05,24,16,35,27.20
2008,05,24,16,36,27.30
2008,05,24,16,37,27.30
2008,05,24,16,38,27.30
2008,05,24,16,39,27.30
2008,05,24,16,40,27.40
2008,05,24,16,41,27.40
2008,05,24,16,42,27.40
2008,05,24,16,43,27.60
2008,05,24,16,44,27.60
2008,05,24,16,45,27.60
2008,05,24,16,46,27.70
2008,05,24,16,47,27.70
2008,05,24,16,48,27.70
2008,05,24,16,49,27.80
2008,05,24,16,50,27.80
2008,05,24,16,51,27.90
2008,05,24,16,52,28.00
2008,05,24,16,53,28.10
2008,05,24,16,54,28.10
2008,05,24,16,55,28.20
2008,05,24,16,56,28.20
2008,05,24,16,57,28.30
2008,05,24,16,58,28.30
2008,05,24,16,59,28.30
2008,05,24,17,00,28.40
2008,05,24,17,01,28.40
2008,05,24,17,02,28.40
2008,05,24,17,03,28.40
2008,05,24,17,04,28.40
2008,05,24,17,05,28.40
2008,05,24,17,06,28.30
2008,05,24,17,07,28.30
2008,05,24,17,08,28.30
2008,05,24,17,09,28.20
2008,05,24,17,10,28.10
2008,05,24,17,11,28.00
2008,05,24,17,12,27.90
2008,05,24,17,13,27.80
2008,05,24,17,14,27.80
2008,05,24,17,15,27.80
2008,05,24,17,16,27.70
2008,05,24,17,17,27.70
2008,05,24,17,18,27.70
2008,05,24,17,19,27.70
2008,05,24,17,20,27.70
2008,05,24,17,21,27.70
2008,05,24,17,22,27.60
2008,05,24,17,23,27.60
2008,05,24,17,24,27.60
2008,05,24,17,25,27.50
2008,05,24,17,26,27.40
2008,05,24,17,27,27.40
2008,05,24,17,28,27.30
2008,05,24,17,29,27.30
2008,05,24,17,30,27.20
2008,05,24,17,31,27.10
2008,05,24,17,32,27.10
2008,05,24,17,33,27.00
2008,05,24,17,34,26.90
2008,05,24,17,35,26.90
2008,05,24,17,36,26.90
2008,05,24,17,37,26.90
2008,05,24,17,38,26.90
2008,05,24,17,39,27.00
2008,05,24,17,40,27.10